User: anonymous   Login
Location: Holiday Acres Laynes 2 Mobile Home Park
(26.7249°N, 81.8671°W)
Time: 16:31:58
(UTC+00:00)
Language:

Cosmos 405 Rocket - Orbit

View from above orbital plane
View from above orbital plane
View from above satellite
View from above satellite

Ground track
Ground track

The orbit data is extracted from the following two-line orbital elements,

1 05118U 71028B   21062.88661763  .00001120  00000-0  57088-4 0  9995
2 05118  81.2552  38.3247 0047848  55.6278 304.9462 15.14872944709099
Epoch (UTC): 03 March 2021 21:16:43
Eccentricity: 0.0047848
inclination: 81.2552°
perigee height: 488 km
apogee height: 554 km
right ascension of ascending node: 38.3247°
argument of perigee: 55.6278°
revolutions per day: 15.14872944
mean anomaly at epoch: 304.9462°
orbit number at epoch: 70909

The dashed part of the orbit path shows where the satellite is in the earth's shadow,  

DLR